Regional Weather Roundup
Issued by NWS San Diego, CA

Home | Current Version | Previous Version | Text Only | Print | Product List | Glossary On
Versions: 1 2 3 4 5 6 7 8 9 10 11 12 13 14 15 16 17 18 19 20 21 22 23 24 25 26 27 28 29 30 31 32 33 34 35 36 37 38 39 40 41 42 43 44 45 46 47 48 49 50
000
ASUS46 KSGX 290511
RWRSGX

SAN DIEGO HOURLY WEATHER ROUNDUP
NATIONAL WEATHER SERVICE SAN DIEGO CA
1000 PM PDT THU MAY 28 2015

NOTE: "FAIR" INDICATES FEW OR NO CLOUDS BELOW 12,000 FEET WITH NO
SIGNIFICANT WEATHER AND/OR OBSTRUCTIONS TO VISIBILITY.

CAZ042-043-060-061-PZZ750-775-290600-

GREATER SAN DIEGO AREA

CITY           SKY/WX    TMP DP  RH WIND       PRES   REMARKS
LINDBERGH FLD  MOCLDY    63  55  75 SW5       29.98R
POINT LOMA       N/A     60  55  84 W3          N/A
NATIONAL CITY    N/A     62  57  83 SW3       29.98R
CHULA VISTA      N/A     60  57  88 CALM      29.90R
IMPERIAL BEACH PTCLDY    60  55  83 SW3       29.98R
BROWN FIELD    CLEAR     57  55  93 W5        29.97R
MIRAMAR MCAS   MOCLDY    60  53  77 W5        29.97R
MONTGOMERY FLD CLEAR     60  55  83 SW3       29.97R

$$

NORTH SAN DIEGO COUNTY

CITY           SKY/WX    TMP DP  RH WIND       PRES   REMARKS
CAMP PENDLETON CLOUDY    62  56  80 CALM      29.96R
OCEANSIDE AP   CLOUDY    63  57  81 CALM      29.96R
OCEANSIDE HBR    N/A     62  59  89 SW2       29.99R
VISTA            N/A     61  56  83 CALM      29.95R
CARLSBAD       CLOUDY    61  56  83 CALM      29.96R
DEL MAR          N/A     61  58  89 CALM      29.99R
LA JOLLA SCRIP   N/A    N/A N/A N/A W1        29.95R
FALLBROOK        N/A     59  59 100 CALM      29.95R
ESCONDIDO        N/A     61  56  84 SW3       29.98R
SAN MARCOS       N/A     61  56  85 CALM      29.95R
POWAY            N/A     59  55  85 CALM      29.98R

$$

EAST SAN DIEGO COUNTY

CITY           SKY/WX    TMP DP  RH WIND       PRES   REMARKS
RAMONA         CLEAR     55  53  93 CALM      29.97R
SANTEE LAKES     N/A     59  56  87 CALM      29.96R
LA MESA          N/A     60  56  87 CALM      29.90R
JAMUL            N/A     57  54  89 CALM      29.96R
DESCANSO N       N/A     58  45  62 E5        29.83R
MT. LAGUNA OBS   N/A     61  30  30 CALM      29.73R
CAMPO            N/A     56  51  84 NE5       29.97R

$$

ORANGE COUNTY AND THE LOS ANGELES BASIN

CITY           SKY/WX    TMP DP  RH WIND       PRES   REMARKS
JOHN WAYNE AP  PTCLDY    61  56  83 SW6       29.96R
LAKE FOREST FR   N/A     59  53  80 CALM      29.86R
SANTA ANA        N/A     64  56  75 CALM      29.91R
HUNTINGTON BCH   N/A     61  58  90 W5        29.97R
LOS ALAMITOS   CLEAR     62  57  84 NW6       29.95R
FULLERTON      CLEAR     64  56  75 S3        29.95R
LONG BEACH     CLEAR     62  56  80 NW6       29.96R
L.A. AP        PTCLDY    59  55  87 SW8       29.96R
L.A. DOWNTOWN  PTCLDY    61  55  81 W5        29.95R

$$

THE INLAND EMPIRE

CITY           SKY/WX    TMP DP  RH WIND       PRES   REMARKS
CORONA         CLEAR     63  56  78 CALM      29.95R
CHINO          CLEAR     64  56  75 W6        29.96R
ONTARIO        PTCLDY    65  55  70 W6        29.95R
RIVERSIDE AP   CLEAR     67  56  67 W5        29.95R
RIV CYN CREST    N/A     69  63  81 NW2         N/A
MORENO VALLEY    N/A     67  58  72 CALM      29.92R
MARCH ARB      CLEAR     65  53  65 W5        29.96R
HORSETHIEF CYN   N/A     65  52  60 CALM      29.92R
PERRIS           N/A     69  57  64 SW2         N/A
MENIFEE          N/A     68  59  73 S2        30.01R
HEMET EAST       N/A     69  51  52 CALM      29.93R
FRENCH VALLEY  FAIR      63  54  72 S3        29.97R
TEMECULA         N/A     63  58  83 S2        29.92R

$$

SAN BERNARDINO AND RIVERSIDE COUNTY MOUNTAINS

CITY           SKY/WX    TMP DP  RH WIND       PRES   REMARKS
BIG BEAR AP    CLEAR     50  32  50 CALM      30.23R
PINE COVE        N/A     59  41  51 CALM      29.91R

$$

SOUTHERN DESERT INCLUDING THE COACHELLA VALLEY

CITY           SKY/WX    TMP DP  RH WIND       PRES   REMARKS
PALM SPRINGS   CLEAR     88  46  23 S6        29.84R
PALM DESERT      N/A     86  52  30 CALM        N/A
THERMAL        CLEAR     80  53  39 N5        29.78R
BLYTHE         PTCLDY    86  28  12 SW9       29.83R
IMPERIAL AP    CLEAR     86  35  16 S6        29.79R
EL CENTRO NAS  PTCLDY    82  40  22 SE13      29.81R
YUMA AZ        CLEAR     82  42  24 S5        29.83R
MEXICALI       CLEAR     77  45  31 SE6       29.82R

$$

UPPER DESERT

CITY           SKY/WX    TMP DP  RH WIND       PRES   REMARKS
VICTORVILLE AP CLEAR     73  37  27 SW8       29.99R
HESPERIA         N/A     73  27  18 W6        29.99R
APPLE VALLEY     N/A     73  33  23 CALM      30.04R
PALMDALE       CLEAR     72  32  23 SW10      29.98R
LANCASTER      CLEAR     72  42  34 SW16      29.97R
EDWARDS AFB    CLEAR     74  38  26 SW12      29.94R
DAGGETT        CLEAR     83  28  13 W17       29.90R
29 PALMS N     CLEAR     81  40  23 SW8       29.96R
NEEDLES        MOCLDY    92  15   6 SW9       29.82R

$$

REGIONAL REPORTS

CITY           SKY/WX    TMP DP  RH WIND       PRES   REMARKS
SANTA BARBARA  CLEAR     60  56  86 E6        29.93R
SANDBERG       CLEAR     69  29  22 NW21      30.11R
LAS VEGAS NV   CLOUDY    89  27  10 SW9       29.83R
PHOENIX AZ     MOCLDY    87  32  14 SW7       29.84R
TIJUANA        CLEAR     57  52  82 W6        29.99R
ENSENADA NW      N/A     61  32  33 SE7       29.95R

$$

OFFSHORE ISLANDS

CITY           SKY/WX    TMP DP  RH WIND       PRES   REMARKS
CATALINA ARPT  CLEAR     60  50  69 SE3       29.98R
SAN NICOLAS IS CLOUDY   N/A N/A N/A NW18      29.96R

$$

MARINE AND OFFSHORE BUOY REPORTS

STATION/POSITION SKY/WX   TEMP    WIND        PRES    SWELL
                          AIR SEA DIR/SP/G            HT/PER/DIR
                          (F)     (DEG/KT/KT) (MB)    (FT/S/D)
TANNER BANKS               58 60  330/ 16/ 17 1015.4R   5/290/14
S CLEMENTE BASIN           60 63  360/  8/ 10 1014.8R   5/230/16
SAN NICOLAS IS.               60                N/A     3/230/14
SO. S. ROSA ISLA           57 60  320/ 19/ 23 1013.9R   5/13
W. S. BARBARA CH           54 55  320/ 23/ 27 1013.9R   3/300/14
M. S. BARBARA CH           58 59  260/ 12/ 16 1013.6R
S. MONICA BASIN            59 62  330/  6/  8 1014.4R   3/230/16
S PEDRO CHANNEL               64                N/A     2/200/14
DANA POINT                    65                N/A     2/220/17
OCEANSIDE OFFSHR              65                N/A     3/220/17
TORREY PINES OTR              65                N/A     3/220/17
LA JOLLA 1                 61 65   10/  3/  4 1014.3R
MISSION BAY BUOY              65                N/A     3/220/17
SAN DIEGO BAY                 67              1014.7R
POINT LOMA SOUTH              64                N/A     3/210/17

$$



USA.gov is the U.S. government's official web portal to all federal, state and local government web resources and services.